Flag for Saudi Arabia Weather past 2 weeks in Medina, Saudi Arabia

Now
115 °F

Passing clouds.


Feels Like: 104 °F
Forecast: 83 / 112 °F
Wind: 9 mph from Southwest

Location: Madinah

Current Time: Aug 23, 2014 at 3:16:11 PM

Latest Report: Aug 23, 2014 at 2:00 PM


Visibility: 4 mi

Pressure: 29.74 "Hg

Humidity: 2%

Dew point: 10 °F

Location of MedinaLocation

Historic Weather in Medina — Graph

°F

Medina temperature yesterday

Maximum temperature yesterday: 113 °F (at 4:00 PM)
Minimum temperature yesterday: 91 °F (at 6:00 AM)
Average temperature yesterday: 104 °F

Past Weeks' High & Low Weather Summary

 TemperatureHumidityPressure
High115 °F (Aug 23, 2:00 PM)24% (Aug 14, 4:00 AM)29.92 "Hg (Aug 14, 4:00 AM)
Low84 °F (Aug 11, 6:00 AM)2% (Aug 15, 3:00 PM)29.68 "Hg (Aug 16, 6:00 PM)
Average101 °F9%29.82 "Hg
* Reported Aug 8 2:00 PM — Aug 23 2:00 PM, Medina, Weather by CustomWeather, © 2014

Note: Actual official high and low records may vary slightly from our data, if they occured in-between our weather recording intervals... More about our weather records

Advertising

Medina weather history for previous 24 hours

 ConditionsComfort  
Time TempWeatherWind HumidityBarometerVisibility
2:00 PM
Aug 23
115 °FPassing clouds.9 mph2%29.74 "Hg4 mi
1:00 PM111 °FPassing clouds.12 mph4%29.77 "Hg4 mi
12:00 PM111 °FSunny.12 mph4%29.80 "Hg4 mi
11:00 AM109 °FSunny.13 mph4%29.83 "Hg4 mi
10:00 AM106 °FSunny.5 mph8%29.83 "Hg4 mi
9:00 AM102 °FSunny.No wind9%29.83 "Hg4 mi
8:00 AM97 °FClear.7 mph11%29.83 "Hg4 mi
7:00 AM93 °FClear.7 mph12%29.83 "Hg4 mi
6:00 AM95 °FClear.5 mph11%29.80 "Hg5 mi
5:00 AM97 °FClear.No wind11%29.80 "Hg10 mi
4:00 AM97 °FClear.7 mph11%29.80 "Hg10 mi
3:00 AM99 °FClear.14 mph10%29.80 "Hg10 mi
2:00 AM100 °FClear.5 mph10%29.80 "Hg10 mi
1:00 AM104 °FClear.14 mph8%29.80 "Hg10 mi
12:00 AM104 °FClear.14 mph9%29.80 "Hg10 mi
11:00 PM
Aug 22
104 °FClear.9 mph4%29.80 "Hg5 mi
10:00 PM106 °FClear.2 mph4%29.80 "Hg5 mi
9:00 PM108 °FClear.5 mph4%29.80 "Hg5 mi
8:00 PM108 °FClear.2 mph4%29.77 "Hg5 mi
7:00 PM109 °FClear.2 mph3%29.77 "Hg5 mi
6:00 PM111 °FClear.No wind3%29.77 "Hg5 mi
5:00 PM111 °FClear.2 mph3%29.77 "Hg5 mi
4:00 PM113 °FClear.6 mph3%29.77 "Hg5 mi
3:00 PM111 °FPassing clouds.6 mph3%29.77 "Hg4 mi
Weather by CustomWeather, © 2014

See weather overviewHow to use our weather pages